Theta_e
298 292 288 291 293 294 291 290 289 292 294 291 291 292 294 296 295 295 296 297 298 299 302 302 305 311 317 321 324 326 328 331 331 329 329 328 328 329 328 329 326 324 323 321
293 289 294 297 295 293 290 289 287 290 293 291 290 291 295 296 295 296 297 297 298 299 300 302 302 304 312 317 321 324 326 330 331 331 330 329 329 329 329 329 329 328 324 321
290 292 297 295 293 291 289 288 288 288 291 290 288 287 290 294 296 296 297 299 299 299 300 301 302 302 303 309 316 321 324 327 331 331 330 328 327 326 326 327 328 328 327 325
292 294 293 292 292 292 287 292 291 290 287 281 288 279 287 291 292 293 295 296 298 297 298 299 300 300 301 302 304 306 317 321 325 331 327 325 325 324 326 326 328 328 328 326
289 290 291 291 292 293 289 293 291 289 286 284 284 281 285 289 289 292 293 294 296 296 298 297 299 301 301 302 301 301 302 305 314 322 329 326 324 325 325 325 325 325 326 326
291 293 293 292 293 293 294 291 290 287 285 279 285 283 283 287 290 290 291 293 295 296 298 299 301 302 302 306 307 306 302 301 305 313 323 326 327 324 323 322 323 324 324 324
289 288 291 293 290 292 291 287 279 278 277 277 284 282 286 291 291 290 292 293 294 297 298 298 299 301 304 305 308 308 304 301 302 308 313 320 326 324 322 323 324 321 319 317
283 281 288 292 291 288 288 287 281 275 276 277 281 278 285 292 292 292 294 293 297 297 299 299 300 301 302 305 305 309 308 302 303 307 310 315 319 319 320 322 322 321 320 319
284 284 291 292 293 292 287 285 289 282 275 277 281 284 290 292 292 291 291 293 294 296 297 298 299 300 301 303 306 307 308 309 310 310 312 313 315 318 318 319 319 317 315 311
289 283 289 291 292 292 290 292 283 282 273 273 278 279 282 287 290 291 291 291 294 297 297 297 298 299 300 302 305 307 310 308 307 308 309 309 311 314 314 314 312 311 307 306
290 288 285 289 286 286 286 286 287 287 284 277 274 278 286 288 291 291 291 293 294 295 296 296 297 298 299 300 303 305 306 308 307 307 305 305 306 307 308 308 307 306 305 306
292 289 281 284 289 292 291 288 288 282 279 280 279 282 290 290 292 292 292 296 296 296 296 296 296 297 298 299 300 302 304 305 307 307 306 305 305 306 306 306 306 306 304 303
292 286 276 279 285 288 287 288 288 288 284 279 276 282 290 291 288 292 293 295 295 295 295 295 296 296 297 297 298 299 300 301 304 307 305 305 305 306 305 303 302 301 299 297
295 288 284 280 281 287 283 286 288 287 281 283 281 285 286 289 290 291 293 294 294 294 295 295 295 296 296 297 297 297 298 299 300 301 301 300 299 300 299 298 297 296 296 295
291 281 285 287 287 286 285 285 286 285 286 282 286 286 290 289 291 292 294 295 295 294 294 295 295 295 295 295 295 296 296 297 298 297 296 295 295 296 295 293 292 290 290 289
292 279 284 280 286 286 281 287 287 287 288 287 288 286 293 292 291 292 295 295 295 295 295 296 296 296 295 295 294 295 294 294 295 293 292 292 290 288 288 287 287 287 287 287
288 282 278 276 285 284 280 285 287 288 289 288 284 289 292 291 292 292 294 296 296 296 295 295 295 295 295 294 294 293 293 292 290 288 287 287 287 286 286 287 286 286 286 284
285 282 283 276 280 275 284 290 291 288 291 291 291 291 291 293 293 294 295 296 296 297 296 295 295 294 294 293 292 292 291 288 286 285 285 286 285 285 285 284 284 284 283 282
291 285 282 277 275 281 286 287 287 286 287 292 292 293 293 293 292 292 296 298 298 297 296 296 295 293 291 291 291 288 286 286 285 284 284 283 283 282 281 281 280 279 281 283
288 287 285 281 279 275 282 289 292 291 283 290 293 293 292 291 288 291 295 295 296 295 294 293 291 290 289 288 287 286 285 284 283 283 283 282 281 280 280 279 278 278 279 280
285 285 283 284 280 281 286 287 292 280 282 288 291 292 291 290 293 292 292 292 292 292 290 289 288 287 287 286 286 284 283 282 282 282 281 280 281 282 280 277 277 276 276 278
285 284 283 284 282 279 286 288 287 288 286 288 289 291 292 290 290 289 289 288 288 287 287 285 284 283 284 284 284 282 280 280 281 280 279 279 278 279 278 275 276 275 275 274
283 288 285 285 284 285 287 285 288 289 287 287 289 288 290 287 286 287 286 286 286 285 284 282 281 280 280 282 281 278 278 278 277 277 278 276 276 276 275 274 276 276 275 274
283 285 286 284 285 284 288 286 289 289 287 288 287 287 287 287 286 285 285 284 283 282 281 280 278 277 276 276 277 276 276 276 277 277 276 273 274 275 275 277 276 274 273 271
284 286 284 283 283 285 287 288 290 287 286 285 285 285 286 286 284 284 283 282 282 281 279 279 278 276 274 273 272 271 272 275 274 272 273 272 272 270 271 273 271 273 272 273
282 284 284 284 287 287 285 287 289 287 286 287 285 283 283 285 284 283 282 281 280 278 277 276 275 274 272 270 268 266 265 268 272 273 272 270 270 269 271 270 270 279 281 282
Wind_Speed
6 4 6 8 9 10 3 8 5 3 2 2 7 8 10 8 7 9 8 7 7 9 9 10 10 9 8 9 10 12 12 13 12 9 8 7 8 7 4 6 8 8 8 7
4 8 10 9 7 7 3 2 2 5 5 2 5 9 10 8 7 9 10 10 10 8 8 9 10 10 10 9 9 9 10 12 11 10 9 8 7 7 7 5 6 8 9 9
9 8 12 11 5 6 4 3 3 3 4 3 4 8 9 11 14 10 10 10 9 9 10 8 10 10 7 8 9 8 9 9 12 11 9 5 3 3 6 8 8 7 6 10
6 4 12 7 6 5 5 7 3 8 3 4 5 6 4 8 8 8 11 11 12 9 4 5 6 7 7 6 6 5 6 8 7 12 10 13 10 9 7 7 7 7 10 7
5 8 13 10 10 10 3 5 6 4 3 5 5 1 8 4 8 10 11 10 9 7 8 6 7 5 3 3 2 2 2 4 5 6 11 10 10 9 7 5 7 7 8 9
3 3 4 6 4 8 8 8 7 2 3 4 8 7 6 6 9 5 1 5 7 6 6 7 6 4 1 1 2 4 4 5 5 6 7 12 12 9 5 5 7 6 5 6
5 1 3 2 8 6 6 6 3 1 1 7 4 6 10 5 3 3 6 8 8 7 6 6 6 4 3 2 1 3 5 5 6 6 5 6 11 10 9 7 6 7 5 3
10 6 9 4 6 10 11 10 8 9 5 5 4 9 8 9 5 7 6 7 7 7 7 7 7 5 5 3 1 1 4 5 5 4 5 5 5 3 4 6 4 5 6 6
9 5 6 13 3 11 6 11 3 7 2 4 7 7 8 6 6 6 6 6 6 7 8 8 7 6 5 4 3 3 5 6 7 4 2 5 4 6 4 5 4 4 4 4
4 5 3 3 3 5 6 5 4 1 5 4 7 6 7 3 8 7 8 10 10 8 8 7 5 5 4 5 5 5 5 5 5 5 6 5 5 6 4 4 5 5 5 4
2 7 2 5 7 10 3 4 6 5 6 8 2 8 2 2 10 11 10 9 8 7 7 7 6 4 3 3 4 5 5 5 4 5 4 5 5 5 5 5 5 5 5 5
10 6 5 7 1 8 12 9 14 7 7 3 4 11 2 7 6 6 7 7 7 9 7 8 7 6 5 4 4 4 5 5 5 5 5 5 5 5 5 5 5 5 6 5
13 5 4 4 3 3 6 6 7 8 3 7 6 15 4 6 3 2 7 7 6 6 7 6 6 6 6 5 4 5 5 5 5 6 6 5 5 5 5 5 5 6 6 6
15 4 15 18 7 10 6 8 10 11 5 20 9 20 6 5 7 6 6 8 8 8 8 7 6 6 6 6 5 5 6 5 5 6 6 7 6 6 6 6 5 6 5 5
9 8 5 19 4 4 6 15 14 16 22 13 26 19 25 8 11 10 9 8 9 9 8 7 7 7 7 6 6 6 5 4 6 6 7 6 6 7 6 6 5 5 6 5
3 2 6 8 4 4 2 8 20 24 25 20 21 15 25 8 6 9 12 11 9 9 9 8 7 8 8 7 7 6 6 4 6 7 7 6 6 7 6 6 5 6 5 4
9 8 5 9 8 6 5 30 10 14 21 20 22 33 8 9 7 7 8 11 13 9 10 11 9 8 8 8 8 7 6 6 6 7 7 6 5 7 6 5 6 6 5 4
10 8 3 4 5 7 16 3 19 19 18 19 20 20 10 15 9 11 10 11 9 10 10 10 10 8 7 6 7 8 7 7 7 7 7 6 5 6 6 5 5 4 3 4
6 7 5 6 5 10 21 6 10 11 27 24 26 20 14 6 4 7 5 7 10 8 8 10 10 10 10 9 8 9 8 7 7 7 6 5 4 6 5 5 5 3 3 4
3 5 8 4 8 14 3 14 13 6 25 13 20 22 14 9 14 8 9 5 5 7 8 11 11 11 11 8 9 10 8 7 7 6 6 4 4 6 5 4 3 1 1 0
7 3 16 10 7 10 5 4 8 10 7 3 4 5 7 10 9 5 7 6 5 5 11 10 11 10 9 9 10 10 8 7 6 7 6 4 4 5 4 2 2 1 1 1
14 11 8 7 10 18 6 3 19 5 2 2 2 2 5 7 6 6 8 8 9 10 8 7 10 8 6 7 9 9 8 5 6 6 5 5 4 3 2 3 1 1 1 2
7 8 9 11 8 2 5 2 4 3 4 3 3 3 6 7 4 7 7 8 8 9 8 7 11 10 6 6 7 10 5 6 5 6 5 4 4 4 3 3 3 2 3 2
1 3 5 5 4 2 8 2 4 3 4 5 4 4 4 6 7 6 7 6 6 7 9 8 10 9 7 5 8 7 6 5 5 6 5 3 5 3 3 2 2 2 2 2
3 6 5 1 3 0 4 3 4 4 5 5 4 3 4 7 6 6 7 7 8 8 8 10 11 10 9 8 7 5 4 5 7 4 4 4 3 2 2 2 0 0 2 2
5 6 5 4 4 5 4 3 6 6 3 4 4 2 1 5 8 6 7 6 6 8 6 7 7 9 8 7 7 5 3 3 5 6 4 2 2 2 3 2 3 7 6 4
Wind_Direction
195 162 192 191 210 238 12 196 172 150 56 185 225 254 256 232 204 232 253 259 236 219 215 200 191 193 193 186 178 185 180 175 173 184 185 192 198 207 206 214 184 180 181 183
120 208 199 206 203 245 255 266 139 50 114 139 274 247 255 258 242 213 217 236 236 228 224 195 178 179 187 194 191 189 185 181 185 185 182 200 195 207 210 207 216 189 177 181
172 194 203 196 189 170 220 198 224 95 158 270 323 281 241 247 231 231 231 225 242 220 209 187 166 175 181 197 197 199 197 188 190 187 176 172 175 179 192 208 207 226 202 182
230 181 189 142 171 146 187 219 274 120 111 245 191 279 270 231 211 209 227 224 227 237 236 124 139 155 170 219 219 215 212 208 203 185 179 186 200 210 211 210 207 202 214 205
196 166 154 168 183 172 196 147 159 137 204 305 212 276 263 206 221 227 224 224 229 219 198 154 117 106 71 53 352 340 296 267 243 208 188 188 198 213 219 175 188 189 198 205
87 310 156 161 130 160 134 84 72 78 225 267 208 200 243 205 212 229 182 159 133 125 108 93 84 77 283 133 255 255 242 253 262 238 191 190 203 202 193 179 192 192 193 197
116 186 54 108 91 100 133 136 108 256 212 224 6 263 233 252 292 185 168 153 157 142 137 137 147 146 130 143 236 235 209 242 241 227 236 206 211 197 208 192 190 171 167 171
170 192 155 199 172 167 192 169 163 184 194 224 1 241 254 228 98 151 113 123 130 145 139 149 143 142 142 124 312 282 192 214 211 209 227 243 249 185 178 188 163 165 177 190
184 221 100 164 151 138 206 228 148 107 2 57 219 267 299 221 239 199 177 154 189 185 164 153 147 152 143 133 127 52 37 34 37 43 50 65 54 101 133 134 129 135 126 142
148 114 140 125 74 279 182 148 190 300 140 236 258 238 227 138 236 221 199 191 200 182 152 141 145 148 135 133 131 107 87 81 52 40 45 57 73 79 103 115 124 127 113 125
159 107 74 102 220 171 119 199 210 159 185 181 269 256 199 191 209 201 198 190 189 164 174 166 158 127 110 87 91 120 118 109 83 68 66 65 61 77 89 100 108 112 109 123
188 101 160 192 79 235 216 217 194 175 238 223 170 257 139 88 57 58 167 146 152 161 157 144 147 150 149 134 120 101 110 118 116 111 101 101 100 100 101 105 108 125 112 91
170 182 82 0 305 194 221 226 233 244 61 206 152 261 126 101 115 116 156 157 144 137 134 144 144 163 150 141 141 126 124 123 129 127 122 120 124 123 111 102 97 90 100 100
154 127 202 209 207 136 200 199 221 226 202 238 224 252 222 188 187 193 177 163 164 177 181 176 168 160 145 153 146 133 122 131 124 120 116 98 86 89 93 93 94 96 94 101
141 193 183 242 150 107 194 199 201 210 229 210 239 234 254 189 201 201 183 168 183 191 182 177 172 161 155 146 131 121 110 122 118 107 91 93 88 78 70 61 65 67 72 71
132 216 177 264 222 167 209 218 212 211 224 228 246 246 247 227 210 192 185 176 191 193 178 182 166 158 160 160 154 137 132 127 110 102 94 84 76 84 80 73 75 80 81 75
162 129 114 253 138 86 320 231 198 224 226 215 226 239 231 250 221 204 188 184 197 183 177 179 170 164 163 159 144 142 135 102 94 94 87 84 88 86 77 82 80 74 69 73
146 123 120 154 95 200 246 204 221 219 231 227 242 247 205 234 234 212 204 187 193 189 178 164 158 152 146 132 112 110 103 105 106 97 92 86 94 90 83 80 73 58 50 57
155 135 147 156 206 306 279 196 185 186 245 221 230 242 231 188 172 249 158 195 204 193 166 162 149 139 131 130 123 119 115 113 108 102 99 92 90 90 80 71 61 41 49 43
62 158 178 143 203 221 300 206 171 116 263 191 218 232 213 155 224 229 204 188 143 128 134 139 131 127 127 127 123 119 121 114 107 107 100 91 90 92 86 84 76 60 81 104
166 160 200 194 229 271 226 133 113 163 242 331 336 235 191 202 238 134 103 71 90 105 121 118 125 130 131 132 129 125 121 113 118 106 105 97 91 95 97 113 102 84 21 359
173 171 186 193 214 254 140 357 171 197 94 130 66 38 113 111 102 105 105 109 109 113 107 97 103 99 99 112 119 118 109 113 106 106 106 100 90 78 69 81 25 351 66 17
182 187 170 192 214 260 177 29 64 44 138 102 88 44 105 112 118 129 130 126 131 126 120 111 116 107 73 90 118 121 121 112 116 112 103 86 78 69 49 68 38 31 19 26
190 133 151 116 201 182 197 100 85 40 89 92 59 87 105 119 133 120 124 124 120 129 125 123 118 114 103 79 88 104 112 112 118 110 106 95 86 58 27 32 71 70 24 14
193 136 147 46 292 289 229 140 144 126 100 96 82 88 134 132 154 153 141 150 148 146 139 142 143 142 141 128 110 96 104 133 120 114 105 92 106 92 35 25 162 143 268 163
189 168 163 188 191 88 14 46 141 139 155 168 123 89 79 158 168 154 150 151 144 147 133 129 126 132 136 123 117 104 63 64 120 131 110 88 81 50 52 37 340 352 356 328